Flag for Austria Weather past 2 weeks in Zwettl, Lower Austria, Austria

Now
46 °F

Cool.


Feels Like: 46 °F
Forecast: 32 / 50 °F
Wind: 2 mph from Northwest

Location: Retz

Current Time: Mar 28, 2015 at 6:57:50 PM

Latest Report: Mar 28, 2015 at 6:00 PM


Visibility: N/A

Pressure: 30.07 "Hg

Humidity: 54%

Dew point: 30 °F

Location of ZwettlLocation

Historic Weather in Zwettl — Graph

°F

Zwettl temperature yesterday

Maximum temperature yesterday: 52 °F (at 4:00 PM)
Minimum temperature yesterday: 41 °F (at 7:00 AM)
Average temperature yesterday: 46 °F

Past Weeks' High & Low Weather Summary

 TemperatureHumidityPressure
High60 °F (Mar 26, 3:00 PM)99% (Mar 15, 3:00 AM)30.53 "Hg (Mar 15, 3:00 AM)
Low30 °F (Mar 23, 6:00 AM)37% (Mar 21, 4:00 PM)29.70 "Hg (Mar 26, 4:00 AM)
Average44 °F70%30.13 "Hg
* Reported Mar 13 5:00 PM — Mar 28 5:00 PM, Zwettl, Weather by CustomWeather, © 2015

Note: Actual official high and low records may vary slightly from our data, if they occured in-between our weather recording intervals... More about our weather records

Advertising

Zwettl weather history for previous 24 hours

 ConditionsComfort  
Time TempWeatherWind HumidityBarometerVisibility
5:00 PM
Sat, Mar 28
46 °FCool.2 mph57%30.07 "HgN/A
4:00 PM46 °FCool.3 mph59%30.08 "HgN/A
3:00 PM46 °FCool.6 mph57%30.08 "HgN/A
2:00 PM47 °FCool.6 mph55%30.09 "HgN/A
1:00 PM46 °FOvercast.6 mph57%30.12 "Hg12 mi
12:00 PM46 °FCool.8 mph60%30.13 "HgN/A
11:00 AM45 °FCool.9 mph65%30.14 "HgN/A
10:00 AM44 °FQuite cool.7 mph69%30.15 "HgN/A
9:00 AM44 °FQuite cool.5 mph72%30.15 "HgN/A
8:00 AM43 °FQuite cool.7 mph73%30.15 "HgN/A
7:00 AM42 °FOvercast.5 mph75%30.15 "Hg5 mi
6:00 AM42 °FQuite cool.7 mph74%30.14 "HgN/A
5:00 AM42 °FQuite cool.6 mph75%30.13 "HgN/A
3:00 AM42 °FQuite cool.7 mph75%30.13 "HgN/A
2:00 AM42 °FQuite cool.8 mph76%30.12 "HgN/A
1:00 AM41 °FQuite cool.7 mph76%30.13 "HgN/A
12:00 AM42 °FQuite cool.7 mph74%30.12 "HgN/A
11:00 PM
Fri, Mar 27
43 °FQuite cool.7 mph73%30.11 "HgN/A
9:00 PM46 °FCool.7 mph67%30.07 "HgN/A
8:00 PM47 °FCool.5 mph66%30.05 "HgN/A
7:00 PM48 °FOvercast.5 mph60%30.03 "Hg9 mi
6:00 PM50 °FCool.5 mph59%30.00 "HgN/A
Weather by CustomWeather, © 2015

See weather overviewHow to use our weather pages